Location: Koszewko
(53.2876°N, 14.9061°E)
Time: 23:02:22
(UTC+00:00)

Cosmos 2219 Rocket - Pass Details

Date: 03 March 2021
Orbit: 826 x 848 km, 71.0° (Epoch: 12 April)

Event Time Altitude Azimuth Distance (km) Brightness Sun altitude
Rises 19:25:59 0° 205° (SSW) 3,357 5.3 -24.7°
Reaches altitude 10° 19:28:23 10° 204° (SSW) 2,430 4.6 -25.0°
Maximum altitude 19:33:57 78° 118° (ESE) 855 2.0 -25.8°
Drops below altitude 10° 19:39:35 10° 34° (NNE) 2,457 4.5 -26.6°
Sets 19:42:03 0° 33° (NNE) 3,399 5.3 -26.9°
